Torna al catalogo

CZ-3B DEB

AttivoGTO
NORAD 40839·DEBRIS·🇨🇳 China

Lanciato Dec 19, 2011 da Xichang Satellite Launch Center

Loading…

TLE

In scadenzaSource: Space-Track

Epoca: Sep 14, 2026, 04:07 UTC

1 40839U 11077U   26257.17205787  .00000230  00000-0  21814-2 0  9992
2 40839  25.1478 146.0533 7401141  48.2902 354.6063  2.03683380 90715

Traccia CZ-3B DEB in tempo reale con AllMySat

Download on the App Store